Location: Newark
(37.3981°N, 88.3750°W)
Time: 16:40:51
(UTC+00:00)

LightSail 2 - Visible Passes

Search period start: 17 September 2019 00:00
Search period end: 27 September 2019 00:00
Orbit: 699 x 732 km, 24.0° (Epoch: 15 September)

Date Brightness Start Highest point End Pass type
(mag) Time Alt. Az. Time Alt. Az. Time Alt. Az.
20 Sep 7.6 10:35:23 10° S 10:36:21 10° SSE 10:37:20 10° SSE visible
22 Sep 7.3 10:24:26 10° SSW 10:27:02 14° S 10:29:37 10° SE visible
23 Sep 7.5 09:30:33 12° SSE 09:30:33 12° SSE 09:31:52 10° SE visible
23 Sep 7.1 11:11:29 10° SW 11:14:46 17° S 11:18:03 10° SE visible
24 Sep 7.0 10:15:52 14° SSW 10:17:41 16° S 10:20:50 10° SE visible
25 Sep 7.4 09:22:09 13° SSE 09:22:09 13° SSE 09:23:29 10° SE visible
25 Sep 7.0 11:02:10 10° SW 11:05:26 17° S 11:08:41 10° SE visible
26 Sep 6.9 10:07:27 17° SSW 10:08:19 17° S 10:11:38 10° SE visible
